Location: Pallagorio
(39.3000°N, 16.9000°E)
Time: 02:09:08
(UTC+00:00)

Cosmos 1703 - Pass Details

Date: 24 January 2021
Orbit: 524 x 538 km, 82.5° (Epoch: 08 March)

Event Time Altitude Azimuth Distance (km) Brightness Sun altitude
Rises 16:43:46 0° 168° (SSE) 2,647 6.9 -8.1°
Reaches altitude 10° 16:46:00 10° 159° (SSE) 1,762 5.9 -8.5°
Maximum altitude 16:49:34 36° 92° (E) 843 3.8 -9.1°
Drops below altitude 10° 16:53:09 10° 25° (NNE) 1,772 5.5 -9.8°
Sets 16:55:24 0° 17° (NNE) 2,665 6.5 -10.2°
